Location: Caltech
(34.1382°N, 118.1253°W)
Time: 01:01:17
(UTC-07:00)

Cosmos 1758 Rocket - Visible Passes

Search period start: 04 May 2015 00:00
Search period end: 14 May 2015 00:00
Orbit: 604 x 636 km, 82.5° (Epoch: 03 May)

Date Brightness Start Highest point End Pass type
(mag) Time Alt. Az. Time Alt. Az. Time Alt. Az.
06 May 6.7 00:29:55 12° N 00:29:55 12° N 00:30:13 10° N visible
07 May 6.7 00:47:18 11° NNW 00:47:18 11° NNW 00:47:34 10° NNW visible
08 May 6.4 23:44:52 13° NNE 23:44:52 13° NNE 23:45:25 10° NNE visible
10 May 6.4 00:02:13 16° N 00:02:13 16° N 00:03:05 10° N visible
11 May 6.4 00:19:32 14° NNW 00:19:32 14° NNW 00:20:22 10° NNW visible
11 May 6.1 22:59:41 14° NNE 22:59:41 14° NNE 23:00:21 10° NNE visible
12 May 6.6 00:36:50 11° NW 00:36:50 11° NW 00:37:00 10° NW visible
12 May 5.9 23:16:57 20° NNE 23:16:57 20° NNE 23:18:20 10° N visible
13 May 5.9 23:34:13 22° N 23:34:13 22° N 23:35:57 10° N visible
